| time (UTC) | temp F | wind direction | speed knots | gust knots | rain 1hr in | rain 24hr in | rain mn in | humidity % | barometer mb |
| 20260506211655 | 69 | 352 | 0.9 | 2.6 | 0.00 | 0.00 | 0.00 | 75 | |
| 20260506211152 | 69 | 323 | 0.9 | 6.1 | 0.00 | 0.00 | 0.00 | 75 | |
| 20260506210649 | 69 | 294 | 0.9 | 1.7 | 0.00 | 0.00 | 0.00 | 75 | |
| 20260506210146 | 69 | 182 | 1.7 | 3.5 | 0.00 | 0.00 | 0.00 | 76 | |
| 20260506205644 | 68 | 280 | 1.7 | 1.7 | 0.00 | 0.00 | 0.00 | 76 | |
| 20260506205143 | 68 | 258 | 1.7 | 3.5 | 0.00 | 0.00 | 0.00 | 76 | |
| 20260506204642 | 68 | 156 | 1.7 | 2.6 | 0.00 | 0.00 | 0.00 | 76 | |
| 20260506204138 | 68 | 248 | 0.9 | 3.5 | 0.00 | 0.00 | 0.00 | 76 | |
| 20260506203637 | 68 | 269 | 0.9 | 2.6 | 0.00 | 0.00 | 0.00 | 76 | |
| 20260506203133 | 68 | 319 | 0.0 | 1.7 | 0.00 | 0.00 | 0.00 | 76 | |
| 20260506202631 | 68 | 224 | 2.6 | 3.5 | 0.00 | 0.00 | 0.00 | 76 | |
| 20260506202127 | 68 | 262 | 3.5 | 7.0 | 0.00 | 0.00 | 0.00 | 77 | |
| 20260506201624 | 68 | 299 | 0.0 | 2.6 | 0.00 | 0.00 | 0.00 | 77 | |
| 20260506201120 | 67 | 237 | 1.7 | 3.5 | 0.00 | 0.00 | 0.00 | 77 | |
| 20260506200617 | 67 | 337 | 1.7 | 6.1 | 0.00 | 0.00 | 0.00 | 77 | |
| 20260506200114 | 67 | 294 | 1.7 | 7.0 | 0.00 | 0.00 | 0.00 | 78 | |
| 20260506195611 | 67 | 105 | 2.6 | 5.2 | 0.00 | 0.00 | 0.00 | 78 | |
| 20260506195107 | 67 | 234 | 2.6 | 5.2 | 0.00 | 0.00 | 0.00 | 79 | |
| 20260506194605 | 67 | 302 | 1.7 | 5.2 | 0.00 | 0.00 | 0.00 | 79 | |
| 20260506194101 | 66 | 191 | 2.6 | 5.2 | 0.00 | 0.00 | 0.00 | 80 | |
| 20260506193559 | 66 | 252 | 5.2 | 6.1 | 0.00 | 0.00 | 0.00 | 81 | |
| 20260506193056 | 66 | 235 | 7.0 | 8.7 | 0.00 | 0.00 | 0.00 | 82 | |
| 20260506192552 | 66 | 279 | 4.3 | 6.1 | 0.00 | 0.00 | 0.00 | 82 | |
| 20260506192048 | 65 | 277 | 2.6 | 7.0 | 0.00 | 0.00 | 0.00 | 83 | |
| 20260506191545 | 66 | 37 | 2.6 | 7.0 | 0.00 | 0.00 | 0.00 | 82 | |
| 20260506191041 | 65 | 275 | 6.1 | 11.3 | 0.00 | 0.00 | 0.00 | 83 | |
| 20260506190538 | 65 | 272 | 1.7 | 2.6 | 0.00 | 0.00 | 0.00 | 83 | |
| 20260506190035 | 65 | 216 | 3.5 | 5.2 | 0.00 | 0.00 | 0.00 | 82 | |
| 20260506185533 | 66 | 212 | 4.3 | 11.3 | 0.00 | 0.00 | 0.00 | 81 | |
| 20260506185029 | 66 | 320 | 3.5 | 11.3 | 0.00 | 0.00 | 0.00 | 80 | |
| 20260506184527 | 67 | 290 | 1.7 | 7.0 | 0.00 | 0.00 | 0.00 | 80 | |
| 20260506184024 | 67 | 195 | 1.7 | 2.6 | 0.00 | 0.00 | 0.00 | 80 | |
| 20260506183519 | 67 | 280 | 0.9 | 2.6 | 0.00 | 0.00 | 0.00 | 80 | |
| 20260506183016 | 67 | 147 | 0.9 | 2.6 | 0.00 | 0.00 | 0.00 | 80 | |
| 20260506182514 | 66 | 278 | 1.7 | 5.2 | 0.00 | 0.00 | 0.00 | 81 | |
| 20260506182010 | 66 | 181 | 1.7 | 2.6 | 0.00 | 0.00 | 0.00 | 81 | |
| 20260506181508 | 66 | 190 | 3.5 | 3.5 | 0.00 | 0.00 | 0.00 | 81 | |
| 20260506181005 | 66 | 243 | 1.7 | 3.5 | 0.00 | 0.00 | 0.00 | 82 | |
| 20260506180502 | 65 | 190 | 1.7 | 5.2 | 0.00 | 0.00 | 0.00 | 82 | |
| 20260506175958 | 65 | 194 | 1.7 | 5.2 | 0.00 | 0.00 | 0.00 | 83 | |
| 20260506175455 | 65 | 224 | 2.6 | 6.1 | 0.00 | 0.00 | 0.00 | 83 | |
| 20260506174951 | 65 | 150 | 4.3 | 6.1 | 0.00 | 0.00 | 0.00 | 83 | |
| 20260506174450 | 65 | 218 | 1.7 | 6.1 | 0.00 | 0.00 | 0.00 | 83 | |
| 20260506173946 | 65 | 254 | 0.9 | 1.7 | 0.00 | 0.00 | 0.00 | 83 | |
| 20260506173443 | 65 | 166 | 0.9 | 1.7 | 0.00 | 0.00 | 0.00 | 82 | |
| 20260506172940 | 65 | 114 | 1.7 | 2.6 | 0.00 | 0.00 | 0.00 | 82 | |
| 20260506172437 | 66 | 262 | 0.9 | 3.5 | 0.00 | 0.00 | 0.00 | 82 | |
| 20260506171934 | 66 | 170 | 2.6 | 3.5 | 0.00 | 0.00 | 0.00 | 82 | |
| 20260506171431 | 65 | 280 | 2.6 | 6.1 | 0.00 | 0.00 | 0.00 | 82 | |
| 20260506170929 | 65 | 218 | 0.9 | 3.5 | 0.00 | 0.00 | 0.00 | 82 | |
| 20260506170425 | 65 | 145 | 2.6 | 3.5 | 0.00 | 0.00 | 0.00 | 82 | |
| 20260506165924 | 65 | 271 | 1.7 | 2.6 | 0.00 | 0.00 | 0.00 | 81 | |
| 20260506165422 | 65 | 278 | 2.6 | 2.6 | 0.00 | 0.00 | 0.00 | 81 | |
| 20260506164918 | 64 | 254 | 1.7 | 2.6 | 0.00 | 0.00 | 0.00 | 81 | |
| 20260506164415 | 65 | 319 | 1.7 | 3.5 | 0.00 | 0.00 | 0.00 | 80 | |
| 20260506163913 | 65 | 321 | 1.7 | 2.6 | 0.00 | 0.00 | 0.00 | 79 | |
| 20260506163407 | 65 | 138 | 0.9 | 1.7 | 0.00 | 0.00 | 0.00 | 78 | |
| 20260506162902 | 66 | 204 | 0.9 | 2.6 | 0.00 | 0.00 | 0.00 | 77 | |
| 20260506162400 | 66 | 338 | 2.6 | 5.2 | 0.00 | 0.00 | 0.00 | 76 | |
| 20260506161857 | 67 | 131 | 2.6 | 3.5 | 0.00 | 0.00 | 0.00 | 75 | |
| 20260506161355 | 67 | 171 | 2.6 | 3.5 | 0.00 | 0.00 | 0.00 | 74 | |
| 20260506160852 | 68 | 253 | 0.9 | 2.6 | 0.00 | 0.00 | 0.00 | 73 | |
| 20260506160349 | 68 | 159 | 0.9 | 3.5 | 0.00 | 0.00 | 0.00 | 71 | |
| 20260506155848 | 69 | 317 | 0.9 | 3.5 | 0.00 | 0.00 | 0.00 | 70 | |
| 20260506155344 | 69 | 164 | 1.7 | 6.1 | 0.00 | 0.00 | 0.00 | 69 | |
| 20260506153502 | 70 | 305 | 1.7 | 3.5 | 0.00 | 0.00 | 0.00 | 69 | |
| 20260506152959 | 70 | 169 | 2.6 | 3.5 | 0.00 | 0.00 | 0.00 | 68 | |
| 20260506152456 | 69 | 308 | 0.0 | 2.6 | 0.00 | 0.00 | 0.00 | 69 | |
| 20260506151954 | 70 | 149 | 1.7 | 2.6 | 0.00 | 0.00 | 0.00 | 68 | |
| 20260506151451 | 70 | 215 | 1.7 | 2.6 | 0.00 | 0.00 | 0.00 | 68 | |
| 20260506150949 | 70 | 252 | 0.0 | 2.6 | 0.00 | 0.00 | 0.00 | 67 | |
| 20260506150444 | 71 | 262 | 0.9 | 5.2 | 0.00 | 0.00 | 0.00 | 64 | |
| 20260506145942 | 70 | 137 | 1.7 | 9.6 | 0.00 | 0.00 | 0.00 | 67 | |
| 20260506145438 | 69 | 154 | 0.9 | 2.6 | 0.00 | 0.00 | 0.00 | 70 | |
| 20260506144936 | 68 | 154 | 1.7 | 3.5 | 0.00 | 0.00 | 0.00 | 69 | |
| 20260506144432 | 68 | 295 | 0.9 | 5.2 | 0.00 | 0.00 | 0.00 | 67 | |
| 20260506143930 | 70 | 177 | 2.6 | 5.2 | 0.00 | 0.00 | 0.00 | 63 | |
| 20260506143427 | 73 | 153 | 3.5 | 7.8 | 0.00 | 0.00 | 0.00 | 60 | |
| 20260506142925 | 73 | 113 | 3.5 | 6.1 | 0.00 | 0.00 | 0.00 | 58 | |
| 20260506142423 | 73 | 223 | 1.7 | 7.8 | 0.00 | 0.00 | 0.00 | 59 | |
| 20260506141921 | 73 | 243 | 2.6 | 7.0 | 0.00 | 0.00 | 0.00 | 59 | |
| 20260506141419 | 73 | 181 | 1.7 | 7.0 | 0.00 | 0.00 | 0.00 | 59 | |
| 20260506140917 | 73 | 234 | 2.6 | 7.0 | 0.00 | 0.00 | 0.00 | 60 | |
| 20260506140413 | 72 | 330 | 0.9 | 2.6 | 0.00 | 0.00 | 0.00 | 60 | |
| 20260506135911 | 73 | 151 | 3.5 | 6.1 | 0.00 | 0.00 | 0.00 | 60 | |
| 20260506135408 | 73 | 144 | 5.2 | 7.8 | 0.00 | 0.00 | 0.00 | 59 | |
| 20260506134904 | 73 | 330 | 2.6 | 5.2 | 0.00 | 0.00 | 0.00 | 60 | |
| 20260506134400 | 72 | 309 | 1.7 | 5.2 | 0.00 | 0.00 | 0.00 | 61 | |
| 20260506133857 | 72 | 227 | 3.5 | 7.8 | 0.00 | 0.00 | 0.00 | 61 | |
| 20260506133353 | 72 | 243 | 3.5 | 7.0 | 0.00 | 0.00 | 0.00 | 62 | |
| 20260506132850 | 72 | 239 | 3.5 | 5.2 | 0.00 | 0.00 | 0.00 | 63 | |
| 20260506132347 | 71 | 225 | 4.3 | 8.7 | 0.00 | 0.00 | 0.00 | 63 | |
| 20260506131846 | 71 | 287 | 3.5 | 8.7 | 0.00 | 0.00 | 0.00 | 64 | |
| 20260506131341 | 70 | 184 | 2.6 | 7.8 | 0.00 | 0.00 | 0.00 | 65 | |
| 20260506130839 | 70 | 142 | 0.9 | 1.7 | 0.00 | 0.00 | 0.00 | 66 | |
| 20260506130335 | 70 | 246 | 6.1 | 8.7 | 0.00 | 0.00 | 0.00 | 67 | |
| 20260506125833 | 69 | 242 | 2.6 | 2.6 | 0.00 | 0.00 | 0.00 | 68 | |
| 20260506125331 | 68 | 241 | 0.9 | 5.2 | 0.00 | 0.00 | 0.00 | 70 | |
| 20260506124829 | 68 | 237 | 3.5 | 6.1 | 0.00 | 0.00 | 0.00 | 71 | |
| 20260506124326 | 67 | 228 | 1.7 | 6.1 | 0.00 | 0.00 | 0.00 | 72 | |
| 20260506123823 | 66 | 239 | 1.7 | 3.5 | 0.00 | 0.00 | 0.00 | 72 | |
| 20260506123322 | 66 | 232 | 3.5 | 5.2 | 0.00 | 0.00 | 0.00 | 72 | |
| 20260506122819 | 66 | 313 | 4.3 | 6.1 | 0.00 | 0.00 | 0.00 | 72 | |
| 20260506122316 | 66 | 263 | 1.7 | 2.6 | 0.00 | 0.00 | 0.00 | 72 | |
| 20260506121814 | 66 | 121 | 3.5 | 5.2 | 0.00 | 0.00 | 0.00 | 72 | |
| 20260506121310 | 66 | 237 | 2.6 | 5.2 | 0.00 | 0.00 | 0.00 | 72 | |
| 20260506120808 | 66 | 221 | 2.6 | 6.1 | 0.00 | 0.00 | 0.00 | 72 | |
| 20260506120305 | 66 | 245 | 2.6 | 5.2 | 0.00 | 0.00 | 0.00 | 72 | |
| 20260506115803 | 66 | 255 | 1.7 | 2.6 | 0.00 | 0.00 | 0.00 | 72 | |
| 20260506115301 | 66 | 130 | 3.5 | 6.1 | 0.00 | 0.00 | 0.00 | 73 | |
| 20260506114758 | 66 | 224 | 4.3 | 5.2 | 0.00 | 0.00 | 0.00 | 73 | |
| 20260506114256 | 66 | 226 | 2.6 | 7.0 | 0.00 | 0.00 | 0.00 | 74 | |
| 20260506113754 | 65 | 238 | 5.2 | 8.7 | 0.00 | 0.00 | 0.00 | 75 | |
| 20260506113251 | 65 | 206 | 3.5 | 5.2 | 0.00 | 0.00 | 0.00 | 75 | |
| 20260506112748 | 64 | 294 | 0.9 | 1.7 | 0.00 | 0.00 | 0.00 | 76 | |
| 20260506112245 | 64 | 250 | 2.6 | 7.0 | 0.00 | 0.00 | 0.00 | 76 | |
| 20260506111742 | 64 | 261 | 2.6 | 5.2 | 0.00 | 0.00 | 0.00 | 76 | |
| 20260506111241 | 64 | 234 | 4.3 | 6.1 | 0.00 | 0.00 | 0.00 | 77 | |
| 20260506110737 | 64 | 350 | 1.7 | 5.2 | 0.00 | 0.00 | 0.00 | 78 | |
| 20260506110235 | 63 | 243 | 1.7 | 9.6 | 0.00 | 0.00 | 0.00 | 79 | |
| 20260506105731 | 63 | 263 | 2.6 | 3.5 | 0.00 | 0.00 | 0.00 | 79 | |
| 20260506105228 | 63 | 235 | 3.5 | 7.0 | 0.00 | 0.00 | 0.00 | 79 | |
| 20260506104726 | 62 | 234 | 4.3 | 7.0 | 0.00 | 0.00 | 0.00 | 80 | |
| 20260506104224 | 62 | 240 | 3.5 | 7.0 | 0.00 | 0.00 | 0.00 | 80 | |
| 20260506103721 | 62 | 228 | 1.7 | 6.1 | 0.00 | 0.00 | 0.00 | 80 | |
| 20260506103218 | 62 | 204 | 1.7 | 1.7 | 0.00 | 0.00 | 0.00 | 80 | |
| 20260506102716 | 62 | 96 | 1.7 | 3.5 | 0.00 | 0.00 | 0.00 | 80 | |
| 20260506102213 | 62 | 268 | 0.9 | 3.5 | 0.00 | 0.00 | 0.00 | 80 | |
| 20260506101710 | 62 | 226 | 3.5 | 5.2 | 0.00 | 0.00 | 0.00 | 80 | |
| 20260506101206 | 62 | 264 | 2.6 | 6.1 | 0.00 | 0.00 | 0.00 | 80 | |
| 20260506100705 | 62 | 238 | 1.7 | 6.1 | 0.00 | 0.00 | 0.00 | 80 | |
| 20260506100202 | 62 | 261 | 0.9 | 3.5 | 0.00 | 0.00 | 0.00 | 80 | |
| 20260506095701 | 62 | 104 | 1.7 | 5.2 | 0.00 | 0.00 | 0.00 | 80 | |
| 20260506095157 | 62 | 84 | 0.9 | 5.2 | 0.00 | 0.00 | 0.00 | 80 | |
| 20260506094654 | 62 | 267 | 1.7 | 5.2 | 0.00 | 0.00 | 0.00 | 80 | |
| 20260506094152 | 62 | 178 | 1.7 | 2.6 | 0.00 | 0.00 | 0.00 | 80 | |
| 20260506093651 | 62 | 311 | 1.7 | 7.0 | 0.00 | 0.00 | 0.00 | 80 | |
| 20260506093147 | 62 | 285 | 2.6 | 3.5 | 0.00 | 0.00 | 0.00 | 80 | |
| 20260506092645 | 62 | 243 | 2.6 | 5.2 | 0.00 | 0.00 | 0.00 | 80 | |
| 20260506092142 | 62 | 120 | 1.7 | 3.5 | 0.00 | 0.00 | 0.00 | 80 | |
| 20260506091640 | 62 | 254 | 4.3 | 7.0 | 0.00 | 0.00 | 0.00 | 80 | |
| 20260506091137 | 62 | 259 | 2.6 | 7.8 | 0.00 | 0.00 | 0.00 | 80 | |
| 20260506090635 | 62 | 244 | 2.6 | 3.5 | 0.00 | 0.00 | 0.00 | 80 | |
| 20260506090131 | 62 | 224 | 2.6 | 3.5 | 0.00 | 0.00 | 0.00 | 80 | |
| 20260506085628 | 62 | 245 | 2.6 | 5.2 | 0.00 | 0.00 | 0.00 | 80 | |
| 20260506085124 | 62 | 223 | 0.9 | 2.6 | 0.00 | 0.00 | 0.00 | 80 | |
| 20260506084621 | 62 | 243 | 2.6 | 6.1 | 0.00 | 0.00 | 0.00 | 80 | |
| 20260506084118 | 62 | 90 | 0.9 | 1.7 | 0.00 | 0.00 | 0.00 | 80 | |
| 20260506083615 | 62 | 289 | 2.6 | 2.6 | 0.00 | 0.00 | 0.00 | 80 | |
| 20260506083113 | 63 | 323 | 0.0 | 2.6 | 0.00 | 0.00 | 0.00 | 79 | |
| 20260506082609 | 63 | 314 | 0.0 | 1.7 | 0.00 | 0.00 | 0.00 | 79 | |
| 20260506082105 | 63 | 240 | 4.3 | 6.1 | 0.00 | 0.00 | 0.00 | 79 | |
| 20260506081603 | 63 | 328 | 1.7 | 5.2 | 0.00 | 0.00 | 0.00 | 79 | |
| 20260506081100 | 63 | 205 | 2.6 | 3.5 | 0.00 | 0.00 | 0.00 | 79 | |
| 20260506080558 | 63 | 255 | 0.9 | 2.6 | 0.00 | 0.00 | 0.00 | 78 | 1014.2 |
| 20260506073038 | 63 | 266 | 0.0 | 3.5 | 0.00 | 0.00 | 0.00 | 78 | 1014.2 |
| 20260506072535 | 63 | 281 | 1.7 | 3.5 | 0.00 | 0.00 | 0.00 | 78 | 1014.2 |
| 20260506072033 | 63 | 246 | 3.5 | 5.2 | 0.00 | 0.00 | 0.00 | 78 | 1014.2 |
| 20260506071531 | 64 | 274 | 3.5 | 5.2 | 0.00 | 0.00 | 0.00 | 77 | 1014.2 |
| 20260506071028 | 64 | 240 | 1.7 | 3.5 | 0.00 | 0.00 | 0.00 | 77 | 1014.1 |
| 20260506070525 | 64 | 307 | 2.6 | 5.2 | 0.00 | 0.00 | 0.00 | 77 | 1014.2 |
| 20260506062502 | 64 | 222 | 1.7 | 7.0 | 0.00 | 0.00 | 0.00 | 77 | 1013.9 |
| 20260506061959 | 64 | 285 | 2.6 | 5.2 | 0.00 | 0.00 | 0.00 | 77 | 1013.9 |
| 20260506061455 | 64 | 257 | 1.7 | 7.0 | 0.00 | 0.00 | 0.00 | 76 | 1014.0 |
| 20260506060953 | 64 | 272 | 2.6 | 3.5 | 0.00 | 0.00 | 0.00 | 76 | 1014.0 |
| 20260506060451 | 64 | 244 | 1.7 | 3.5 | 0.00 | 0.00 | 0.00 | 76 | 1014.0 |
| 20260506050920 | 64 | 289 | 1.7 | 6.1 | 0.00 | 0.00 | 0.00 | 73 | 1014.3 |
| 20260506050417 | 65 | 271 | 2.6 | 3.5 | 0.00 | 0.00 | 0.00 | 73 | 1014.5 |
| 20260506044908 | 65 | 151 | 1.7 | 3.5 | 0.00 | 0.00 | 0.00 | 72 | 1014.5 |
| 20260506044406 | 65 | 307 | 0.9 | 7.8 | 0.00 | 0.00 | 0.00 | 71 | 1014.6 |
| 20260506043903 | 65 | 214 | 1.7 | 5.2 | 0.00 | 0.00 | 0.00 | 71 | 1014.6 |
| 20260506043400 | 65 | 263 | 2.6 | 2.6 | 0.00 | 0.00 | 0.00 | 71 | 1014.6 |
| 20260506042858 | 65 | 331 | 0.9 | 2.6 | 0.00 | 0.00 | 0.00 | 71 | 1014.7 |
| 20260506042357 | 66 | 312 | 1.7 | 2.6 | 0.00 | 0.00 | 0.00 | 70 | 1014.6 |
| 20260506041855 | 66 | 243 | 2.6 | 3.5 | 0.00 | 0.00 | 0.00 | 70 | 1014.5 |
| 20260506041354 | 66 | 242 | 4.3 | 6.1 | 0.00 | 0.00 | 0.00 | 70 | 1014.5 |
| 20260506040849 | 66 | 262 | 1.7 | 3.5 | 0.00 | 0.00 | 0.00 | 70 | 1014.6 |
| 20260506040346 | 66 | 256 | 0.9 | 3.5 | 0.00 | 0.00 | 0.00 | 70 | 1014.7 |
| 20260506035842 | 66 | 203 | 2.6 | 3.5 | 0.00 | 0.00 | 0.00 | 69 | 1014.5 |
| 20260506035340 | 66 | 289 | 0.9 | 3.5 | 0.00 | 0.00 | 0.00 | 69 | 1014.7 |
| 20260506034837 | 66 | 150 | 1.7 | 2.6 | 0.00 | 0.00 | 0.00 | 69 | 1014.7 |
| 20260506034334 | 66 | 138 | 1.7 | 2.6 | 0.00 | 0.00 | 0.00 | 69 | 1014.5 |
| 20260506033831 | 66 | 276 | 0.9 | 2.6 | 0.00 | 0.00 | 0.00 | 69 | 1014.7 |
| 20260506033328 | 66 | 260 | 1.7 | 7.0 | 0.00 | 0.00 | 0.00 | 68 | 1014.6 |
| 20260506032824 | 67 | 126 | 1.7 | 2.6 | 0.00 | 0.00 | 0.00 | 68 | 1014.5 |
| 20260506032321 | 67 | 276 | 3.5 | 6.1 | 0.00 | 0.00 | 0.00 | 68 | 1014.4 |
| 20260506031818 | 67 | 97 | 3.5 | 3.5 | 0.00 | 0.00 | 0.00 | 68 | 1014.6 |
| 20260506031316 | 67 | 237 | 3.5 | 7.0 | 0.00 | 0.00 | 0.00 | 68 | 1014.6 |
| 20260506030813 | 67 | 247 | 1.7 | 5.2 | 0.00 | 0.00 | 0.00 | 68 | 1014.5 |
| 20260506030311 | 67 | 294 | 2.6 | 3.5 | 0.00 | 0.00 | 0.00 | 67 | 1014.6 |
| 20260506025808 | 67 | 218 | 2.6 | 7.8 | 0.00 | 0.00 | 0.00 | 67 | 1014.6 |
| 20260506025305 | 67 | 264 | 1.7 | 5.2 | 0.00 | 0.00 | 0.00 | 67 | 1014.9 |
| 20260506024801 | 67 | 257 | 3.5 | 5.2 | 0.00 | 0.00 | 0.00 | 67 | 1014.6 |
| 20260506024258 | 67 | 175 | 2.6 | 7.8 | 0.00 | 0.00 | 0.00 | 67 | 1014.7 |
| 20260506023754 | 68 | 264 | 2.6 | 5.2 | 0.00 | 0.00 | 0.00 | 67 | 1014.7 |
| 20260506023251 | 68 | 343 | 1.7 | 6.1 | 0.00 | 0.00 | 0.00 | 67 | 1014.7 |
| 20260506022747 | 68 | 229 | 3.5 | 8.7 | 0.00 | 0.00 | 0.00 | 66 | 1014.5 |
| 20260506022246 | 68 | 204 | 1.7 | 3.5 | 0.00 | 0.00 | 0.00 | 66 | 1014.9 |
| 20260506021744 | 68 | 262 | 7.0 | 11.3 | 0.00 | 0.00 | 0.00 | 66 | 1014.8 |
| 20260506021240 | 68 | 210 | 4.3 | 7.0 | 0.00 | 0.00 | 0.00 | 65 | 1014.8 |
| 20260506020737 | 68 | 210 | 4.3 | 11.3 | 0.00 | 0.00 | 0.00 | 65 | 1014.9 |
| 20260506020235 | 68 | 135 | 0.0 | 7.0 | 0.00 | 0.00 | 0.00 | 65 | 1014.7 |
| 20260506015732 | 68 | 273 | 3.5 | 6.1 | 0.00 | 0.00 | 0.00 | 64 | 1014.7 |
| 20260506015230 | 68 | 159 | 3.5 | 11.3 | 0.00 | 0.00 | 0.00 | 64 | 1014.7 |
| 20260506014726 | 68 | 181 | 5.2 | 7.8 | 0.00 | 0.00 | 0.00 | 63 | 1014.6 |
| 20260506014222 | 69 | 216 | 3.5 | 7.0 | 0.00 | 0.00 | 0.00 | 63 | 1014.6 |
| 20260506013720 | 69 | 247 | 1.7 | 6.1 | 0.00 | 0.00 | 0.00 | 62 | 1014.5 |
| 20260506013217 | 69 | 153 | 4.3 | 7.0 | 0.00 | 0.00 | 0.00 | 62 | 1014.4 |
| 20260506012713 | 69 | 226 | 4.3 | 6.1 | 0.00 | 0.00 | 0.00 | 61 | 1014.6 |
| 20260506012210 | 69 | 228 | 2.6 | 6.1 | 0.00 | 0.00 | 0.00 | 61 | 1014.5 |
| 20260506011708 | 69 | 58 | 1.7 | 7.8 | 0.00 | 0.00 | 0.00 | 61 | 1014.5 |
| 20260506011204 | 69 | 317 | 0.9 | 3.5 | 0.00 | 0.00 | 0.00 | 60 | 1014.3 |
| 20260506010702 | 69 | 246 | 1.7 | 5.2 | 0.00 | 0.00 | 0.00 | 60 | 1014.4 |
| 20260506010159 | 69 | 216 | 2.6 | 3.5 | 0.00 | 0.00 | 0.00 | 59 | 1014.2 |
| 20260506005656 | 69 | 228 | 0.9 | 3.5 | 0.00 | 0.00 | 0.00 | 59 | 1014.2 |
| 20260506005153 | 69 | 161 | 3.5 | 5.2 | 0.00 | 0.00 | 0.00 | 59 | 1014.1 |
| 20260506004649 | 69 | 133 | 1.7 | 3.5 | 0.00 | 0.00 | 0.00 | 58 | 1014.0 |
| 20260506004146 | 69 | 302 | 1.7 | 6.1 | 0.00 | 0.00 | 0.00 | 58 | 1013.9 |
| 20260506003642 | 70 | 214 | 1.7 | 7.8 | 0.00 | 0.00 | 0.00 | 58 | 1013.9 |
| 20260506003139 | 70 | 207 | 4.3 | 7.0 | 0.00 | 0.00 | 0.00 | 58 | 1014.0 |
| 20260506002635 | 70 | 297 | 0.9 | 5.2 | 0.00 | 0.00 | 0.00 | 57 | 1014.0 |
| 20260506002131 | 70 | 263 | 2.6 | 5.2 | 0.00 | 0.00 | 0.00 | 57 | 1013.9 |
| 20260506001627 | 70 | 240 | 3.5 | 7.0 | 0.00 | 0.00 | 0.00 | 56 | 1013.8 |
| 20260506001125 | 71 | 214 | 2.6 | 3.5 | 0.00 | 0.00 | 0.00 | 56 | 1013.9 |
| 20260506000622 | 71 | 261 | 4.3 | 6.1 | 0.00 | 0.00 | 0.00 | 56 | 1013.6 |
| 20260506000119 | 71 | 304 | 3.5 | 6.1 | 0.00 | 0.00 | 0.00 | 56 | 1013.5 |
| 20260505235617 | 71 | 301 | 0.9 | 5.2 | 0.00 | 0.00 | 0.00 | 56 | 1013.8 |
| 20260505235114 | 71 | 346 | 0.9 | 8.7 | 0.00 | 0.00 | 0.00 | 56 | 1013.7 |
| 20260505234611 | 71 | 258 | 3.5 | 6.1 | 0.00 | 0.00 | 0.00 | 56 | 1013.4 |
| 20260505234107 | 71 | 274 | 3.5 | 3.5 | 0.00 | 0.00 | 0.00 | 56 | 1013.6 |
| 20260505233605 | 72 | 130 | 1.7 | 5.2 | 0.00 | 0.00 | 0.00 | 55 | 1013.3 |
| 20260505233102 | 72 | 247 | 1.7 | 7.0 | 0.00 | 0.00 | 0.00 | 55 | 1013.4 |
| 20260505232600 | 72 | 121 | 2.6 | 6.1 | 0.00 | 0.00 | 0.00 | 54 | 1013.1 |
| 20260505232057 | 72 | 218 | 1.7 | 5.2 | 0.00 | 0.00 | 0.00 | 54 | 1013.0 |
| 20260505231554 | 73 | 255 | 2.6 | 3.5 | 0.00 | 0.00 | 0.00 | 53 | 1013.1 |
| 20260505231053 | 73 | 320 | 1.7 | 6.1 | 0.00 | 0.00 | 0.00 | 53 | 1013.0 |
| 20260505230550 | 73 | 239 | 4.3 | 6.1 | 0.00 | 0.00 | 0.00 | 53 | 1013.0 |
| 20260505230046 | 73 | 287 | 0.9 | 5.2 | 0.00 | 0.00 | 0.00 | 53 | 1012.8 |
| 20260505225543 | 73 | 246 | 1.7 | 6.1 | 0.00 | 0.00 | 0.00 | 54 | 1012.6 |
| 20260505225039 | 73 | 303 | 1.7 | 6.1 | 0.00 | 0.00 | 0.00 | 54 | 1012.6 |
| 20260505224536 | 73 | 221 | 1.7 | 3.5 | 0.00 | 0.00 | 0.00 | 53 | 1012.5 |
| 20260505224033 | 74 | 277 | 1.7 | 3.5 | 0.00 | 0.00 | 0.00 | 53 | 1012.6 |
| 20260505223530 | 74 | 265 | 6.1 | 9.6 | 0.00 | 0.00 | 0.00 | 52 | 1012.4 |
| 20260505223026 | 74 | 265 | 1.7 | 5.2 | 0.00 | 0.00 | 0.00 | 53 | 1012.7 |
| 20260505222523 | 74 | 322 | 1.7 | 5.2 | 0.00 | 0.00 | 0.00 | 53 | 1012.6 |
| 20260505222019 | 74 | 192 | 3.5 | 7.0 | 0.00 | 0.00 | 0.00 | 52 | 1012.4 |
| 20260505221517 | 74 | 235 | 2.6 | 3.5 | 0.00 | 0.00 | 0.00 | 52 | 1012.4 |
| 20260505221013 | 75 | 240 | 2.6 | 6.1 | 0.00 | 0.00 | 0.00 | 53 | 1012.4 |
| 20260505220510 | 75 | 254 | 2.6 | 7.8 | 0.00 | 0.00 | 0.00 | 53 | 1012.4 |
| 20260505220008 | 75 | 242 | 3.5 | 5.2 | 0.00 | 0.00 | 0.00 | 53 | 1012.4 |
| 20260505215506 | 75 | 229 | 1.7 | 7.0 | 0.00 | 0.00 | 0.00 | 52 | 1012.2 |
| 20260505215003 | 75 | 269 | 0.9 | 6.1 | 0.00 | 0.00 | 0.00 | 53 | 1012.2 |
| 20260505214502 | 75 | 210 | 4.3 | 5.2 | 0.00 | 0.00 | 0.00 | 54 | 1012.3 |
| 20260505213958 | 75 | 138 | 2.6 | 5.2 | 0.00 | 0.00 | 0.00 | 54 | 1012.1 |
| 20260505213456 | 75 | 248 | 1.7 | 3.5 | 0.00 | 0.00 | 0.00 | 55 | 1012.2 |
| 20260505212952 | 75 | 209 | 3.5 | 6.1 | 0.00 | 0.00 | 0.00 | 55 | 1012.1 |
| 20260505212448 | 75 | 148 | 2.6 | 7.0 | 0.00 | 0.00 | 0.00 | 55 | 1012.0 |